Temperature
9 7 6 7 8 9 9 9 9 9 9 9 8 9 9 10 10 9 10 10 10 10 11 11 11 11 11 11 10 11 11 11 11 11 11 11 11 11 10 10 10 10 10 10
6 7 8 9 9 9 9 8 8 9 9 9 8 8 9 9 9 10 10 10 10 10 10 10 11 10 10 10 10 10 10 10 10 10 10 10 10 10 10 10 10 10 10 9
7 8 9 9 8 9 8 8 8 8 8 8 8 8 9 9 9 10 10 10 10 10 10 10 10 10 10 10 10 10 10 10 10 10 10 10 10 10 10 10 9 9 9 9
7 8 8 8 8 8 8 8 8 8 7 6 8 7 8 8 8 8 9 9 10 10 10 10 10 10 10 10 10 10 10 9 9 9 9 9 9 9 9 9 9 9 9 8
7 7 7 8 8 8 8 8 8 8 7 6 7 7 7 7 8 8 8 9 10 10 10 10 10 10 10 9 9 9 9 9 9 9 9 9 9 9 8 8 8 8 8 8
7 8 8 8 8 8 8 8 7 6 5 7 7 7 7 7 8 8 8 9 9 10 10 10 10 9 9 9 9 9 9 9 8 8 8 8 8 8 8 8 8 8 8 7
7 7 8 8 8 7 7 6 5 6 5 6 7 7 7 8 8 8 8 9 9 9 9 9 9 9 9 9 9 8 8 8 8 8 8 8 7 7 7 7 7 7 7 7
6 6 7 7 7 7 7 7 6 7 6 6 6 6 7 8 8 9 9 9 9 9 9 9 9 9 9 9 9 8 8 8 8 8 7 7 7 7 7 7 7 7 7 7
6 6 7 7 8 7 7 6 6 5 5 5 6 6 7 8 8 8 8 8 9 9 9 9 9 8 8 8 8 8 8 8 8 7 7 7 7 6 6 6 6 6 6 6
6 6 6 7 7 7 7 6 5 5 6 7 7 6 7 8 8 7 7 7 8 9 9 9 8 8 8 8 8 7 7 7 7 7 7 7 6 6 6 6 6 6 6 6
6 5 5 6 6 6 6 6 6 5 5 5 6 6 7 7 7 7 7 8 8 9 9 8 8 8 8 8 7 7 7 7 7 7 6 6 6 6 6 6 6 5 5 5
5 4 4 5 6 6 6 6 5 5 5 4 4 6 7 7 7 7 7 8 8 8 8 8 8 8 7 7 7 7 7 7 6 6 6 6 6 6 6 5 5 5 5 5
5 4 5 6 6 6 6 6 6 5 4 3 4 6 7 6 7 7 8 8 8 8 8 8 7 7 7 7 7 7 7 6 6 6 6 6 6 5 5 5 5 5 4 4
5 4 4 6 6 5 5 5 5 4 3 3 4 5 6 6 6 6 7 8 8 8 8 7 7 7 7 7 6 6 6 6 6 5 5 5 5 5 5 5 4 4 4 4
4 3 3 4 4 5 5 5 5 4 4 4 5 5 6 6 6 7 7 7 7 7 7 7 7 7 6 6 6 6 6 5 5 5 5 5 5 4 4 4 4 4 4 3
3 3 3 4 5 4 4 4 4 4 5 5 5 5 6 6 7 7 7 7 7 7 7 7 7 6 6 6 6 6 6 5 5 5 4 4 4 4 4 4 4 3 3 3
3 3 3 3 4 4 4 5 5 4 4 4 5 5 6 5 5 6 7 7 7 7 7 7 6 6 6 6 5 5 5 5 5 4 4 4 4 3 3 3 3 3 3 2
2 3 2 2 3 5 6 6 5 5 5 5 5 5 5 6 7 7 7 7 7 7 7 6 6 6 6 5 5 5 5 4 4 4 4 3 3 3 3 3 3 2 2 2
2 3 2 2 2 3 5 6 5 5 5 5 5 5 6 6 6 6 7 7 7 6 6 6 6 6 5 5 5 4 4 4 4 4 3 3 3 3 2 2 2 2 2 2
2 2 2 2 3 4 6 6 6 6 5 6 5 5 5 5 4 5 7 6 6 6 6 6 6 5 5 5 4 4 4 3 3 3 3 3 2 2 2 2 2 2 1 1
1 1 1 2 2 3 5 6 6 5 6 7 6 6 6 5 5 6 6 6 6 6 6 5 5 5 4 4 4 3 3 3 3 3 2 2 2 2 1 1 1 1 1 1
1 1 1 2 2 3 5 5 5 5 7 7 7 6 6 6 6 6 6 5 5 5 5 5 4 4 4 4 3 3 3 3 2 2 2 2 2 1 1 1 1 1 0 0
1 2 2 2 4 5 6 6 7 7 7 7 6 6 6 6 5 5 5 5 5 4 4 4 4 4 3 3 3 2 2 2 2 2 2 2 1 1 1 1 0 0 0 -0
1 2 2 2 2 4 5 6 6 6 6 6 6 5 5 5 5 5 5 4 4 4 4 3 3 3 3 3 2 2 2 2 1 1 1 1 1 1 1 0 0 -0 -0 -0
2 2 1 2 2 4 5 6 6 6 6 5 5 5 5 4 4 4 4 4 3 3 3 3 3 2 2 2 2 2 1 1 1 1 1 1 0 0 0 0 -0 -0 -0 -1
1 2 2 3 4 3 5 5 5 5 5 5 4 4 4 4 4 3 3 3 3 3 3 2 2 2 2 2 2 1 1 1 1 1 0 0 0 -0 -0 -0 -0 -0 -1 -1
Wind_Speed
4 5 2 2 1 3 2 1 1 3 2 0 3 6 7 4 4 5 5 5 5 5 4 3 4 5 4 3 3 2 2 1 2 2 1 1 1 1 1 2 4 5 6 6
5 3 3 2 1 2 2 1 2 3 3 1 3 7 6 5 5 6 7 6 6 4 3 3 4 4 4 3 3 3 2 1 1 1 0 0 0 1 1 1 3 4 4 5
2 3 3 2 3 3 2 1 1 2 4 3 2 6 5 3 2 2 4 5 5 6 6 5 4 4 4 3 3 3 2 1 1 1 1 2 2 2 2 2 2 3 4 4
2 3 2 2 2 2 1 1 0 1 2 3 1 3 6 3 3 2 3 4 5 5 5 5 5 5 5 4 3 2 3 2 1 1 2 1 1 1 2 1 1 2 4 4
2 2 3 1 2 1 2 2 1 1 1 2 1 2 7 2 3 4 4 5 5 5 5 5 5 5 5 4 3 3 2 2 1 1 1 1 1 1 1 1 1 2 3 3
1 1 0 1 2 1 1 3 3 4 4 2 3 3 6 3 5 4 3 4 4 4 4 4 4 4 3 3 2 2 3 2 2 3 2 2 2 2 1 2 1 2 2 2
4 3 3 1 3 4 4 4 4 4 3 5 2 3 7 6 4 4 5 5 4 3 4 3 4 4 4 4 3 3 3 3 3 2 2 3 3 3 3 2 2 2 2 2
2 4 4 2 0 1 1 4 5 3 4 5 3 5 6 4 3 0 3 4 3 3 3 4 4 5 5 5 4 4 4 4 3 3 3 3 3 2 2 2 2 2 2 2
1 3 3 2 1 1 1 1 3 4 1 3 5 6 6 1 2 2 2 2 3 3 4 4 4 4 4 5 5 5 5 5 4 4 4 4 3 3 3 3 2 2 2 2
2 2 4 3 2 2 1 2 3 3 1 3 5 5 4 4 3 2 2 3 4 3 3 4 4 4 4 4 4 4 5 5 5 5 4 4 4 4 4 2 2 2 2 2
1 1 3 3 2 3 1 1 2 2 3 3 3 6 5 5 5 4 4 4 4 4 4 4 4 4 3 3 3 4 4 4 4 5 4 4 4 3 3 3 3 3 2 2
1 2 3 6 4 3 4 4 4 2 3 3 3 7 5 4 3 3 3 3 4 4 4 4 4 3 3 3 4 4 4 4 5 4 4 5 4 3 3 4 3 3 2 2
1 2 2 5 3 1 2 3 3 3 2 4 4 7 4 1 1 1 2 3 4 4 4 3 3 4 4 4 4 4 4 5 4 4 4 4 4 4 4 4 4 3 3 3
2 3 5 7 6 3 5 5 4 4 4 5 8 10 7 5 4 5 4 5 4 5 4 4 4 4 5 5 5 5 5 4 4 3 4 5 5 5 5 4 4 3 3 3
3 3 5 8 9 7 9 11 9 11 10 9 9 9 11 8 7 7 6 5 4 5 5 4 4 5 5 5 5 5 5 4 4 4 5 6 5 4 4 4 4 4 4 4
2 3 3 6 6 7 10 13 12 13 11 12 12 13 10 7 5 5 6 5 5 6 6 5 5 5 5 5 5 5 5 5 4 5 5 5 4 4 5 5 4 4 4 4
2 2 1 5 6 6 8 10 10 7 8 9 13 11 6 4 6 7 6 6 7 7 6 6 6 6 6 6 5 6 6 4 4 5 5 5 4 5 5 5 4 4 4 4
5 4 2 3 4 6 7 3 5 7 8 9 8 6 6 7 6 6 6 6 7 6 6 6 5 5 5 5 5 4 4 4 4 5 5 5 5 5 5 4 5 5 4 4
6 6 3 2 4 8 9 4 3 5 6 6 9 8 5 3 2 5 5 5 6 6 6 5 5 5 4 5 4 3 3 3 4 5 5 5 5 5 5 5 6 5 4 4
3 4 4 3 4 7 7 3 1 1 5 4 4 5 4 2 2 6 5 4 5 5 4 4 4 3 4 4 3 3 4 4 5 6 6 5 5 5 6 6 6 4 4 5
3 4 6 7 7 9 8 3 2 2 5 3 4 5 5 6 7 5 4 4 5 5 5 4 4 4 4 4 3 4 4 6 6 5 5 4 5 5 6 5 4 4 4 4
8 7 7 6 7 9 5 4 5 7 4 3 4 4 5 6 6 5 5 5 5 5 5 4 4 5 4 3 3 4 6 6 4 4 4 4 4 4 4 4 4 4 4 4
9 9 7 10 10 6 4 6 5 4 5 5 5 5 5 5 6 6 6 6 6 6 5 4 4 5 5 4 4 6 7 5 4 4 4 4 4 4 4 4 5 3 4 4
5 5 5 7 10 9 8 7 7 6 7 7 6 6 6 7 7 7 6 6 6 6 6 5 4 5 6 5 5 6 6 4 4 4 5 4 4 4 4 4 4 4 4 5
7 5 5 8 9 9 7 6 7 6 6 6 6 6 7 7 8 7 7 7 6 6 5 4 5 6 7 6 5 5 4 4 4 5 5 4 4 4 4 4 5 6 6 6
7 8 8 11 10 8 8 7 7 7 8 8 8 7 7 7 8 8 7 7 6 6 5 5 6 6 7 6 6 5 4 4 5 5 5 4 4 4 4 4 5 7 8 9
Wind_Direction
24 55 28 300 231 195 193 132 307 279 289 269 240 260 269 257 218 212 212 207 206 211 210 168 148 135 127 127 131 125 92 58 62 42 44 39 3 31 35 21 20 21 22 14
34 12 290 291 13 56 70 66 352 330 349 331 273 278 271 246 224 212 201 202 204 202 189 170 152 147 148 151 156 148 120 79 68 64 33 175 307 347 342 360 7 13 19 12
98 282 314 38 32 53 27 113 283 308 342 2 341 307 286 280 252 225 204 194 192 189 187 180 171 172 165 170 177 171 148 129 83 54 56 43 37 14 4 1 355 355 3 6
33 323 9 46 21 54 327 296 285 324 25 305 56 289 289 271 294 257 216 197 196 191 180 174 172 181 187 194 185 181 161 141 110 80 93 95 87 270 277 290 309 338 354 356
344 345 22 23 312 6 231 287 323 353 91 340 317 199 287 307 269 255 232 213 206 194 183 179 180 187 190 189 186 186 174 151 152 146 152 161 237 258 281 304 333 343 346 349
296 310 331 262 304 296 306 29 32 45 65 319 245 181 284 258 239 247 229 213 204 198 192 187 182 172 182 184 187 192 186 190 191 181 180 189 219 238 275 309 320 324 328 333
349 336 335 11 14 4 53 73 31 3 4 260 265 200 254 265 253 218 203 203 201 182 180 186 190 193 201 203 210 207 200 208 205 194 195 205 218 217 224 253 266 284 304 310
12 312 315 354 123 255 300 130 148 199 241 284 311 238 256 288 308 184 163 170 172 180 190 200 210 210 209 210 212 212 212 220 213 207 215 214 211 211 228 240 244 255 268 279
146 276 308 327 317 163 134 153 169 141 209 274 278 283 298 266 16 64 121 147 191 215 215 216 219 218 218 218 216 213 216 223 222 217 213 213 211 210 224 235 238 253 270 290
166 271 293 310 5 8 137 143 95 127 185 271 289 276 249 252 241 226 212 219 234 239 240 233 229 228 225 224 226 223 222 223 227 224 220 218 216 217 218 218 229 246 263 279
136 190 308 335 237 221 169 167 138 135 168 182 270 274 230 222 213 210 224 230 230 229 234 235 240 239 232 233 228 229 233 235 236 230 223 220 218 214 213 218 228 236 252 262
78 128 269 266 262 235 198 193 153 162 241 200 219 269 276 233 214 201 223 241 246 239 238 236 236 242 244 244 243 241 241 241 241 232 220 220 217 212 216 227 231 228 240 251
114 119 339 336 331 327 243 217 184 154 155 189 207 264 312 6 312 278 240 249 254 251 252 245 237 240 245 247 249 249 247 245 242 227 222 224 224 220 224 228 227 226 232 245
122 174 199 222 236 221 251 251 216 179 200 226 230 254 280 287 281 281 275 265 256 252 249 243 247 250 251 250 247 248 253 248 237 225 226 230 231 228 226 225 224 227 228 234
125 225 242 256 262 253 249 248 228 217 213 219 242 244 257 253 252 253 255 258 262 258 251 248 249 250 255 259 258 253 252 248 232 225 232 237 235 226 223 225 226 227 230 237
156 230 274 281 270 259 263 254 238 232 228 236 254 267 263 252 238 251 254 251 254 255 253 256 258 254 253 253 255 256 252 248 230 225 235 239 233 226 225 226 223 224 233 236
196 188 269 278 307 320 272 242 216 212 212 207 232 245 257 249 245 245 245 242 246 253 257 259 257 253 251 250 246 245 248 249 236 234 237 236 231 231 231 226 220 227 231 228
175 166 209 282 334 260 249 253 204 217 240 221 232 244 238 235 248 250 235 233 246 250 254 258 256 255 256 251 248 249 246 242 240 241 242 240 236 237 233 223 226 231 229 230
179 171 198 229 267 278 291 274 195 206 265 234 232 246 249 249 308 286 247 231 238 245 248 249 246 248 252 256 249 243 245 247 248 250 247 241 232 236 232 230 233 230 227 236
137 156 182 203 237 252 258 277 232 120 277 261 212 230 232 171 284 272 258 248 257 256 252 249 251 255 258 261 245 234 247 249 252 252 250 243 229 228 233 235 234 228 224 235
153 180 203 218 239 263 261 258 122 187 257 278 241 240 227 218 233 255 270 267 262 259 257 253 251 255 254 252 234 242 251 253 255 255 251 244 234 232 236 237 234 231 228 233
184 186 201 196 219 252 240 153 188 231 265 271 267 256 242 246 256 263 263 261 264 267 266 258 254 264 263 242 226 248 257 260 260 251 248 247 243 240 240 234 237 230 220 230
203 199 195 201 220 248 216 214 240 240 256 266 261 258 244 249 258 262 259 259 263 262 261 258 251 262 266 243 224 244 262 262 253 247 251 254 252 244 235 228 231 231 222 228
246 207 210 248 261 263 266 261 264 258 254 265 261 257 244 249 258 265 266 263 262 263 260 260 257 261 267 257 242 244 257 249 237 246 255 255 252 254 245 233 225 225 227 232
229 206 229 256 270 286 271 254 261 267 263 266 267 258 249 249 257 259 265 265 261 263 261 252 250 256 262 262 256 255 249 233 238 249 255 255 250 250 249 241 232 231 230 229
208 212 225 250 251 250 265 265 265 264 265 264 264 264 253 244 254 260 262 262 259 260 260 260 258 258 263 261 261 259 243 226 233 252 253 249 249 250 246 249 261 252 247 253
Height
1511 1515 1518 1516 1514 1514 1514 1515 1515 1513 1510 1511 1511 1509 1506 1504 1504 1504 1505 1505 1507 1507 1509 1510 1511 1512 1513 1514 1514 1514 1513 1513 1512 1512 1510 1511 1511 1510 1511 1510 1510 1509 1509 1508
1517 1518 1515 1513 1512 1513 1514 1516 1516 1514 1511 1512 1512 1509 1504 1503 1502 1502 1502 1503 1504 1506 1507 1508 1509 1510 1511 1512 1512 1512 1511 1511 1511 1510 1510 1509 1509 1508 1508 1508 1508 1507 1506 1506
1519 1519 1514 1514 1514 1514 1516 1518 1518 1517 1514 1513 1514 1510 1504 1501 1500 1500 1500 1501 1503 1504 1505 1506 1507 1508 1509 1510 1510 1510 1509 1510 1509 1509 1508 1508 1507 1507 1507 1506 1506 1505 1504 1503
1519 1517 1515 1515 1516 1516 1518 1516 1516 1516 1520 1522 1519 1522 1507 1503 1501 1500 1500 1500 1501 1503 1504 1505 1505 1506 1507 1508 1508 1508 1508 1508 1507 1507 1507 1506 1506 1505 1504 1504 1503 1502 1501 1500
1521 1518 1518 1517 1517 1516 1517 1515 1516 1517 1520 1524 1521 1523 1513 1504 1503 1500 1499 1499 1500 1502 1503 1503 1504 1505 1506 1506 1506 1506 1506 1505 1506 1505 1505 1505 1505 1504 1503 1502 1501 1500 1499 1498
1521 1519 1518 1517 1516 1516 1515 1517 1518 1522 1526 1526 1520 1523 1515 1508 1501 1498 1498 1498 1499 1501 1501 1502 1503 1504 1504 1504 1505 1504 1504 1504 1504 1504 1503 1503 1503 1502 1501 1499 1498 1497 1496 1496
1524 1521 1518 1517 1518 1517 1518 1524 1532 1531 1535 1528 1519 1519 1514 1501 1497 1496 1496 1497 1498 1499 1500 1501 1501 1502 1502 1502 1502 1502 1502 1501 1501 1501 1501 1501 1501 1500 1499 1498 1496 1495 1494 1493
1528 1528 1521 1519 1520 1520 1520 1523 1532 1532 1533 1528 1520 1518 1507 1499 1496 1495 1495 1496 1497 1498 1499 1499 1500 1500 1500 1500 1500 1500 1499 1499 1499 1499 1499 1498 1498 1497 1497 1496 1494 1493 1492 1490
1529 1527 1521 1519 1519 1519 1519 1523 1523 1531 1532 1532 1523 1514 1503 1497 1496 1495 1495 1496 1496 1497 1498 1498 1498 1498 1498 1498 1498 1498 1497 1497 1496 1496 1496 1496 1495 1494 1494 1493 1492 1490 1489 1488
1527 1528 1523 1520 1519 1519 1520 1521 1527 1529 1528 1526 1519 1515 1508 1498 1497 1496 1496 1495 1495 1496 1496 1496 1496 1496 1496 1496 1496 1495 1495 1494 1494 1494 1493 1493 1492 1491 1491 1490 1489 1488 1486 1485
1526 1529 1527 1523 1521 1521 1521 1522 1523 1529 1530 1530 1526 1515 1498 1495 1495 1495 1494 1494 1494 1494 1494 1494 1494 1494 1494 1493 1493 1492 1492 1491 1490 1490 1490 1489 1489 1488 1487 1486 1485 1484 1483 1482
1526 1531 1531 1525 1519 1518 1519 1519 1523 1527 1528 1531 1532 1516 1493 1492 1492 1492 1493 1493 1493 1493 1493 1493 1492 1492 1491 1490 1490 1489 1488 1487 1487 1486 1486 1485 1485 1484 1483 1483 1482 1481 1479 1478
1526 1530 1531 1524 1524 1521 1519 1517 1519 1523 1527 1532 1530 1513 1493 1492 1491 1491 1492 1491 1491 1491 1491 1490 1489 1489 1488 1487 1487 1486 1485 1484 1483 1483 1482 1481 1481 1480 1479 1479 1478 1477 1476 1475
1524 1528 1530 1525 1520 1519 1519 1517 1517 1521 1527 1526 1518 1506 1495 1493 1492 1491 1490 1489 1489 1488 1488 1487 1486 1486 1485 1484 1483 1482 1481 1480 1480 1479 1478 1477 1477 1476 1475 1475 1474 1473 1472 1471
1524 1527 1525 1522 1517 1517 1515 1513 1513 1514 1514 1515 1505 1501 1492 1490 1490 1488 1487 1487 1486 1485 1485 1484 1483 1482 1482 1481 1480 1479 1477 1476 1475 1474 1473 1473 1472 1472 1471 1470 1470 1469 1468 1467
1523 1526 1523 1519 1513 1513 1511 1505 1505 1505 1504 1503 1499 1494 1485 1485 1486 1485 1484 1484 1483 1482 1481 1480 1480 1479 1478 1477 1476 1475 1474 1473 1472 1470 1469 1469 1468 1467 1467 1466 1465 1465 1464 1463
1523 1525 1524 1522 1515 1511 1505 1495 1495 1496 1494 1494 1494 1487 1483 1484 1483 1481 1481 1480 1479 1478 1477 1477 1476 1475 1474 1474 1473 1471 1470 1469 1468 1466 1465 1464 1464 1463 1462 1462 1461 1460 1459 1459
1521 1523 1524 1523 1518 1511 1492 1485 1486 1487 1486 1485 1482 1480 1480 1480 1479 1478 1478 1477 1476 1475 1474 1473 1472 1471 1471 1470 1469 1467 1466 1465 1463 1462 1461 1460 1459 1458 1458 1457 1456 1456 1455 1454
1516 1519 1523 1523 1521 1507 1490 1483 1483 1485 1483 1478 1478 1477 1477 1477 1477 1475 1474 1474 1473 1472 1471 1470 1469 1468 1467 1465 1464 1463 1461 1460 1459 1457 1456 1456 1455 1453 1453 1452 1452 1451 1451 1450
1515 1517 1521 1521 1517 1507 1487 1481 1480 1482 1482 1475 1475 1474 1475 1475 1478 1473 1471 1470 1469 1469 1468 1466 1465 1464 1462 1461 1460 1458 1456 1455 1454 1453 1452 1451 1450 1449 1448 1448 1447 1447 1446 1445
1516 1517 1518 1517 1513 1499 1484 1480 1481 1487 1481 1474 1472 1472 1472 1472 1471 1469 1468 1467 1466 1465 1464 1463 1461 1459 1458 1457 1455 1453 1452 1451 1450 1448 1447 1446 1445 1444 1444 1443 1442 1442 1441 1441
1508 1512 1511 1510 1510 1498 1478 1479 1481 1478 1473 1472 1470 1470 1469 1467 1466 1465 1464 1463 1462 1461 1459 1458 1456 1454 1453 1452 1450 1448 1447 1446 1445 1443 1442 1441 1441 1440 1439 1438 1437 1437 1436 1435
1499 1496 1495 1494 1487 1477 1474 1473 1473 1472 1470 1469 1468 1467 1466 1464 1463 1461 1460 1459 1457 1456 1455 1453 1451 1449 1448 1447 1445 1443 1442 1441 1440 1438 1437 1436 1436 1435 1434 1433 1432 1432 1431 1430
1489 1486 1488 1486 1477 1473 1471 1470 1469 1469 1467 1466 1465 1463 1462 1460 1458 1457 1455 1454 1452 1451 1449 1448 1446 1444 1442 1441 1440 1439 1437 1436 1435 1433 1432 1431 1431 1430 1429 1428 1428 1427 1426 1425
1482 1482 1482 1479 1472 1469 1466 1466 1465 1464 1463 1462 1460 1459 1457 1455 1453 1452 1450 1448 1447 1445 1444 1442 1440 1438 1437 1436 1434 1433 1432 1431 1429 1428 1427 1426 1426 1425 1424 1423 1423 1422 1421 1420
1475 1476 1476 1470 1465 1465 1462 1461 1461 1459 1458 1456 1454 1452 1452 1450 1448 1446 1444 1443 1441 1440 1438 1436 1435 1433 1431 1430 1429 1428 1427 1426 1424 1423 1422 1421 1421 1420 1419 1418 1418 1417 1416 1415